TELKOM 3S

Last updated on Jan. 27, 2020, 4:38 a.m. UTC

1 41944U 17007A   20026.87187442 -.00000369  00000-0  00000-0 0  9997
2 41944   0.0172  73.3237 0002115 234.0951 250.0574  1.00272951 10744
UTC
Height (km)
Latitude
Longitude
Inclination
Orbital Period
UTC large
Height (km)
Speed (km/s)
/
Latitude / Longitude
Inclination (degrees)
Orbital Period (minutes)
Azimuth
Elevation
Range (km)
Doppler Factor
iOS Compass Heading
iOS Angle

Next 30 passes for location: Hong Kong

Rise time Rise Azimuth (degrees) Set time Set Azimuth (degrees) Duration Max altitude (degrees)

No matching passes for this satellites